sat.trackr.live / text

‹ back to catalog

AMOS-4

NORAD 39237 · 2013-045A

PAYLOAD ACTIVE UNKNOWN

§ Identity

Operator
Country
ISRA
Launch date
2013-08-31
Launch site
TYMSC
Launch vehicle
Mass (kg)
RCS (m²)
7.94

Purposes: comms

External: N2YO · Heavens-Above · Gunter

§ Orbital elements

Epoch: 2026-09-12T03:57:01.536768Z

Period
1,436.09 min
Inclination
0.0469°
Eccentricity
0.0001187
Mean motion
1.00272149 rev/d
Perigee alt
35,781.5 km
Apogee alt
35,791.5 km
Semi-major
42,164.6 km
B*
0.0000e+0
RAAN
257.1893°
Arg perigee
257.8762°
Mean anomaly
320.3881°
Rev number
4,783

§ Raw data

AMOS-41 39237U 13045A   26255.16460112 -.00000008  00000+0  00000+0 0  99952 39237   0.0469 257.1893 0001187 257.8762 320.3881  1.00272149 47837

JSON: /api/v1/satellites/39237 · /tle

For live sub-satellite position, see the globe view (requires WebGL).

§ Visibility from observer

Set your observer location to see the next 7 days of passes ≥ 10°. The values pass through the URL so the page stays shareable.

No JS? Fill the form by hand. The geolocation button needs JavaScript.